Showing default

OPS 4412 (TRANSIT 9), 801

Orbit data source: Space-Track

OPS 4412 (TRANSIT 9), 801 is a payload satellite owned by USN BuWeps (US) in LEO that was launched on Thu, 04 Jun 1964 UTC via an SCOUT X-4 launch vehicle from the Air Force Western Test Range (AFWTR). Payload-class satellites include a variety of spacecraft equipped with specific instruments for various scientific and technological missions. These include communications satellites like Starlink; space stations such as the ISS; scientific satellites like the Hubble; Earth observation satellites from companies like Planet Labs, Umbra, and HawkEye 360; GPS; miniature CubeSats for education and research; and military/defense satellites.

Loading next visibility...
Identifier
801, 1964-026A
Orbit
LEO
Country
Flag of USUS
Related business
Manufacturer
APL
Mission
Spacecraft
Bus & Motor
TRANSIT 5, Unknown motor
Mass
54 kg wet, 54 kg dry
Launch date (UTC)
1964-06-04 (62 years ago)
Launch vehicle
SCOUT X-4
Launch site
Air Force Western Test Range (AFWTR)
Object type
Payload
Rocket body
Debris
Shape & HBR
Unknown
Radar Cross Section
Large (>1 m²)

Expand to show TLE details & history
Last TLE update: 14 hours ago

TLE from 14 hours ago
0 OPS 4412 (TRANSIT 9)
1 00801U 64026A   26037.37764797  .00000712  00000-0  34563-3 0  9999
2 00801  90.4542 181.2284 0049547  87.1996 273.4861 14.16963784167622
Epoch: 2026-02-06T09:03Z
TLE epoch observation values (Epoch: 2026-02-06T09:03:48.784Z)
Latitude
-0.00012°
Longitude
-91.24126°
Altitude
836.692 km
Speed
7.435 km/s
True Right ascension
12h 04m 54s
True Declination
0° 00' 00"
Sunlit
Object was in full shadow at epoch
Visualization orbit readout
Latitude
Unknown
Longitude
Unknown
Altitude
Unknown
Speed
Unknown
Apparent Right ascension
Unknown
Apparent Declination
Unknown
Sunlit
N/A
Visualization observer readout
Local Sidereal Time
01:39:38
Azimuth
Unknown
Elevation
Unknown
Doppler factor
Unknown
Orbital elements
Apogee altitude
868.32 km
Perigee altitude
796.866 km
Semi-major axis
7,210.73 km
Eccentricity
0.00495
Inclination
90.4542°
RAAN
181.2284°
Arg. of periapsis
87.1996°
True anomaly
272.91918°
Mean anomaly
273.4861°
Eccentric anomaly
273.20266°
Mean motion
3.54466 °/min
Orbital period
101.56 mins
BSTAR
0.00034563
Loading maneuver chart data...
Computing Atmospheric mass density...
Loading historical data...
Loading historical data...
Loading historical data...
Loading historical data...
Loading historical data...
Loading historical data...
Loading historical data...

Documentation

Showing up to 5 results
|